Change the Weather History Date:

Wednesday, March 26, 2014

  Actual Average (KORF) Record (KORF)
Temperature  
Mean Temperature 36 °F 52 °F  
Max Temperature 44 °F 61 °F 84 °F (1939)
Min Temperature 28 °F 43 °F 27 °F (1940)
Degree Days  
Heating Degree Days 29 13  
Month to date heating degree days 432  
Since 1 July heating degree days 3001  
Cooling Degree Days 0 0  
Month to date cooling degree days 0  
Year to date cooling degree days 1  
Moisture  
Dew Point 20 °F    
Average Humidity 56    
Maximum Humidity 100    
Minimum Humidity 27    
Precipitation  
Precipitation 0.00 in 0.13 in 2.11 in (1978)
Month to date precipitation 3.09  
Year to date precipitation 9.61  
Snow  
Snow 0.00 in 0.00 in 4.20 in (1971)
Month to date snowfall 0.2  
Since 1 July snowfall 5.8  
Snow Depth -    
Sea Level Pressure  
Sea Level Pressure 30.09 in    
Wind  
Wind Speed 12 mph (WNW)    
Max Wind Speed 23 mph    
Max Gust Speed 33 mph    
Visibility 10 miles    
Events      
T = Trace of Precipitation, MM = Missing Value Source: NWS Daily Summary

Daily Weather History Graph

Daily Weather History Graph

Search for Another Location

Airport or City:

Trip Planner

Search our weather history database for the weather conditions in past years. The results will help you decide how hot, cold, wet, or windy it might be!

Date:

Astronomy

Mar. 26, 2014 Rise Set
Actual Time 7:00 AM EDT 7:22 PM EDT
Civil Twilight 6:34 AM EDT 7:48 PM EDT
Nautical Twilight 6:03 AM EDT 8:18 PM EDT
Astronomical Twilight 5:32 AM EDT 8:49 PM EDT
Moon 4:00 AM EDT (3/26) 3:04 PM EDT (3/26)
Length of Visible Light 13h 14m
Length of Day
12h 22m
Waning Crescent, 22% of the Moon is Illuminated
Mar 26
Waning Crescent
Mar 30
New
Apr 7
First Quarter
Apr 15
Full
Apr 22
Last Quarter

Hourly Weather History & Observations

Time (EDT) Temp. Windchill Dew Point Humidity Pressure Visibility Wind Dir Wind Speed Gust Speed Precip Events Conditions
12:15 AM 35.6 °F 28.0 °F 33.8 °F 93% 29.83 in 10.0 mi NW 10.4 mph - N/A   Overcast
12:35 AM 33.8 °F 25.8 °F 33.8 °F 100% 29.83 in 10.0 mi NW 10.4 mph 18.4 mph N/A   Overcast
12:55 AM 33.8 °F 25.3 °F 33.8 °F 100% 29.84 in 10.0 mi NW 11.5 mph 16.1 mph N/A   Overcast
1:15 AM 33.8 °F 24.8 °F 33.8 °F 100% 29.85 in 10.0 mi NNW 12.7 mph 19.6 mph N/A   Overcast
1:35 AM 33.8 °F 26.4 °F 33.8 °F 100% 29.85 in 7.0 mi NW 9.2 mph 17.3 mph N/A   Overcast
1:55 AM 33.8 °F 26.4 °F 33.8 °F 100% 29.86 in 10.0 mi NW 9.2 mph - N/A   Overcast
2:15 AM 33.8 °F 27.0 °F 33.8 °F 100% 29.86 in 10.0 mi NW 8.1 mph 18.4 mph N/A   Mostly Cloudy
2:35 AM 33.8 °F 24.3 °F 30.2 °F 87% 29.86 in 10.0 mi NNW 13.8 mph 21.9 mph N/A   Mostly Cloudy
2:55 AM 33.8 °F 25.8 °F 30.2 °F 87% 29.87 in 10.0 mi NW 10.4 mph 18.4 mph N/A   Scattered Clouds
3:15 AM 35.6 °F 27.5 °F 32.0 °F 87% 29.88 in 10.0 mi WNW 11.5 mph - N/A   Mostly Cloudy
3:35 AM 35.6 °F 28.0 °F 30.2 °F 81% 29.89 in 10.0 mi WNW 10.4 mph 19.6 mph N/A   Mostly Cloudy
3:55 AM 35.6 °F 28.0 °F 30.2 °F 81% 29.90 in 10.0 mi WNW 10.4 mph - N/A   Overcast
4:15 AM 33.8 °F 25.3 °F 30.2 °F 87% 29.91 in 10.0 mi West 11.5 mph 18.4 mph N/A   Mostly Cloudy
4:35 AM 33.8 °F 25.8 °F 30.2 °F 87% 29.92 in 10.0 mi WNW 10.4 mph 19.6 mph N/A   Overcast
4:55 AM 33.8 °F 25.8 °F 30.2 °F 87% 29.93 in 10.0 mi WNW 10.4 mph 16.1 mph N/A   Overcast
5:15 AM 33.8 °F 25.8 °F 30.2 °F 87% 29.94 in 10.0 mi WNW 10.4 mph 16.1 mph N/A   Scattered Clouds
5:35 AM 33.8 °F 25.3 °F 30.2 °F 87% 29.95 in 10.0 mi WNW 11.5 mph - N/A   Clear
5:55 AM 33.8 °F 27.0 °F 30.2 °F 87% 29.97 in 10.0 mi West 8.1 mph - N/A   Mostly Cloudy
6:15 AM 32.0 °F 23.6 °F 28.4 °F 87% 29.98 in 10.0 mi WNW 10.4 mph 16.1 mph N/A   Scattered Clouds
6:35 AM 32.0 °F 22.1 °F 28.4 °F 87% 29.99 in 10.0 mi WNW 13.8 mph - N/A   Scattered Clouds
6:55 AM 33.8 °F 25.8 °F 26.6 °F 75% 30.00 in 10.0 mi NW 10.4 mph 18.4 mph N/A   Clear
7:15 AM 33.8 °F 23.9 °F 24.8 °F 70% 30.01 in 10.0 mi WNW 15.0 mph 18.4 mph N/A   Clear
7:35 AM 33.8 °F 26.4 °F 21.2 °F 60% 30.03 in 10.0 mi WNW 9.2 mph 20.7 mph N/A   Clear
7:55 AM 33.8 °F 23.2 °F 19.4 °F 56% 30.03 in 10.0 mi NW 17.3 mph 23.0 mph N/A   Clear
8:15 AM 33.8 °F 23.9 °F 17.6 °F 52% 30.04 in 10.0 mi NW 15.0 mph 19.6 mph N/A   Clear
8:35 AM 35.6 °F 25.2 °F 15.8 °F 44% 30.06 in 10.0 mi WNW 18.4 mph 25.3 mph N/A   Clear
8:55 AM 35.6 °F 25.9 °F 15.8 °F 44% 30.07 in 10.0 mi WNW 16.1 mph 29.9 mph N/A   Clear
9:15 AM 35.6 °F 26.6 °F 15.8 °F 44% 30.09 in 10.0 mi WNW 13.8 mph 29.9 mph N/A   Clear
9:35 AM 35.6 °F 25.2 °F 15.8 °F 44% 30.09 in 10.0 mi WNW 18.4 mph 28.8 mph N/A   Clear
9:55 AM 37.4 °F 27.8 °F 15.8 °F 41% 30.11 in 10.0 mi WNW 17.3 mph 29.9 mph N/A   Scattered Clouds
10:15 AM 35.6 °F 24.8 °F 15.8 °F 44% 30.11 in 10.0 mi NW 19.6 mph 29.9 mph N/A   Scattered Clouds
10:35 AM 37.4 °F 27.5 °F 14.0 °F 38% 30.12 in 10.0 mi NW 18.4 mph 29.9 mph N/A   Scattered Clouds
10:55 AM 37.4 °F 26.9 °F 14.0 °F 38% 30.13 in 10.0 mi WNW 20.7 mph 33.4 mph N/A   Scattered Clouds
11:15 AM 39.2 °F 29.8 °F 15.8 °F 39% 30.13 in 10.0 mi WNW 18.4 mph 24.2 mph N/A   Mostly Cloudy
11:35 AM 37.4 °F 27.5 °F 14.0 °F 38% 30.14 in 10.0 mi NW 18.4 mph 27.6 mph N/A   Scattered Clouds
11:55 AM 39.2 °F 29.6 °F 14.0 °F 36% 30.14 in 10.0 mi NW 19.6 mph 25.3 mph N/A   Scattered Clouds
12:15 PM 39.2 °F 29.3 °F 14.0 °F 36% 30.14 in 10.0 mi NW 20.7 mph 26.5 mph N/A   Mostly Cloudy
12:35 PM 39.2 °F 30.5 °F 15.8 °F 39% 30.14 in 10.0 mi WNW 16.1 mph 26.5 mph N/A   Mostly Cloudy
12:55 PM 39.2 °F 30.5 °F 15.8 °F 39% 30.15 in 10.0 mi NW 16.1 mph 26.5 mph N/A   Mostly Cloudy
1:15 PM 39.2 °F 30.5 °F 15.8 °F 39% 30.15 in 10.0 mi NW 16.1 mph 25.3 mph N/A   Scattered Clouds
1:35 PM 41.0 °F 31.9 °F 17.6 °F 39% 30.14 in 10.0 mi West 19.6 mph 26.5 mph N/A   Mostly Cloudy
1:55 PM 42.8 °F 35.4 °F 15.8 °F 34% 30.14 in 10.0 mi WNW 15.0 mph 28.8 mph N/A   Scattered Clouds
2:15 PM 42.8 °F 34.8 °F 15.8 °F 34% 30.14 in 10.0 mi West 17.3 mph 26.5 mph N/A   Scattered Clouds
2:35 PM 42.8 °F 34.3 °F 15.8 °F 34% 30.14 in 10.0 mi WNW 19.6 mph 24.2 mph N/A   Scattered Clouds
2:55 PM 42.8 °F 34.8 °F 14.0 °F 31% 30.14 in 10.0 mi West 17.3 mph 27.6 mph N/A   Clear
3:15 PM 42.8 °F 35.8 °F 15.8 °F 34% 30.14 in 10.0 mi NW 13.8 mph 25.3 mph N/A   Clear
3:35 PM 42.8 °F 34.3 °F 15.8 °F 34% 30.14 in 10.0 mi West 19.6 mph 29.9 mph N/A   Scattered Clouds
3:55 PM 42.8 °F 34.5 °F 14.0 °F 31% 30.15 in 10.0 mi NW 18.4 mph 27.6 mph N/A   Clear
4:15 PM 42.8 °F 34.8 °F 12.2 °F 29% 30.16 in 10.0 mi WNW 17.3 mph 26.5 mph N/A   Clear
4:35 PM 44.6 °F 37.4 °F 14.0 °F 29% 30.16 in 10.0 mi NW 16.1 mph 24.2 mph N/A   Clear
4:55 PM 44.6 °F 35.9 °F 12.2 °F 27% 30.16 in 10.0 mi WNW 23.0 mph 26.5 mph N/A   Clear
5:15 PM 44.6 °F 38.4 °F 15.8 °F 31% 30.16 in 10.0 mi West 12.7 mph 21.9 mph N/A   Clear
5:35 PM 42.8 °F 36.6 °F 12.2 °F 29% 30.16 in 10.0 mi WNW 11.5 mph 21.9 mph N/A   Clear
5:55 PM 42.8 °F 35.4 °F 10.4 °F 27% 30.18 in 10.0 mi NW 15.0 mph 20.7 mph N/A   Clear
6:15 PM 42.8 °F 35.4 °F 12.2 °F 29% 30.19 in 10.0 mi WNW 15.0 mph 21.9 mph N/A   Clear
6:35 PM 42.8 °F 34.8 °F 10.4 °F 27% 30.20 in 10.0 mi WNW 17.3 mph 24.2 mph N/A   Clear
6:55 PM 42.8 °F 36.6 °F 10.4 °F 27% 30.21 in 10.0 mi WNW 11.5 mph 20.7 mph N/A   Clear
7:15 PM 41.0 °F 35.8 °F 10.4 °F 29% 30.22 in 10.0 mi WNW 8.1 mph - N/A   Clear
7:35 PM 39.2 °F 33.0 °F 10.4 °F 31% 30.23 in 10.0 mi WNW 9.2 mph - N/A   Clear
7:55 PM 39.2 °F 35.9 °F 10.4 °F 31% 30.24 in 10.0 mi WNW 4.6 mph - N/A   Clear
8:15 PM 39.2 °F 35.0 °F 10.4 °F 31% 30.26 in 10.0 mi WNW 5.8 mph - N/A   Clear
8:35 PM 37.4 °F 33.8 °F 12.2 °F 36% 30.27 in 10.0 mi WNW 4.6 mph - N/A   Clear
8:55 PM 37.4 °F - 12.2 °F 36% 30.27 in 10.0 mi Calm Calm - N/A   Clear
9:15 PM 37.4 °F - 10.4 °F 33% 30.28 in 10.0 mi Calm Calm - N/A   Clear
9:35 PM 33.8 °F - 19.4 °F 56% 30.29 in 10.0 mi Calm Calm - N/A   Clear
9:55 PM 30.2 °F - 19.4 °F 64% 30.30 in 10.0 mi Calm Calm - N/A   Clear
10:15 PM 30.2 °F - 19.4 °F 64% 30.31 in 10.0 mi Calm Calm - N/A   Clear
10:35 PM 28.4 °F - 21.2 °F 74% 30.32 in 10.0 mi Calm Calm - N/A   Clear
10:55 PM 30.2 °F - 19.4 °F 64% 30.32 in 10.0 mi Calm Calm - N/A   Clear
11:15 PM 30.2 °F - 21.2 °F 69% 30.33 in 10.0 mi Calm Calm - N/A   Clear
11:35 PM 28.4 °F - 21.2 °F 74% 30.34 in 10.0 mi Calm Calm - N/A   Clear
11:55 PM 28.4 °F - 21.2 °F 74% 30.34 in 10.0 mi Calm Calm - N/A   Clear